Weather History for Milwaukee Timmerman, WI

Change the Weather History Date:

Sunday, November 25, 2012

  Actual Average Record
Temperature  
Mean Temperature 32 °F -  
Max Temperature 39 °F 42 °F 58 °F (1966)
Min Temperature 24 °F 28 °F -8 °F (1950)
Degree Days  
Heating Degree Days 34    
Moisture  
Dew Point 21 °F    
Average Humidity 69    
Maximum Humidity 80    
Minimum Humidity 49    
Precipitation  
Precipitation 0.00 in - - ()
Sea Level Pressure  
Sea Level Pressure 29.92 in    
Wind  
Wind Speed 7 mph (WSW)    
Max Wind Speed 14 mph    
Max Gust Speed 17 mph    
Visibility 10 miles    
Events      
Averages and records for this station are not official NWS values.
T = Trace of Precipitation, MM = Missing Value Source: NWS Daily Summary

Daily Weather History Graph

Daily Weather History Graph

Search for Another Location

Airport:

Trip Planner

Search our weather history database for the weather conditions in past years. The results will help you decide how hot, cold, wet, or windy it might be!

Date:

Astronomy

Nov. 25, 2012 Rise Set
Actual Time 6:57 AM CST 4:20 PM CST
Civil Twilight 6:26 AM CST 4:51 PM CST
Nautical Twilight 5:51 AM CST 5:27 PM CST
Astronomical Twilight 5:17 AM CST 6:01 PM CST
Moon 2:39 PM CST (11/25) 4:08 AM CST (11/25)
Length of Visible Light 10h 25m
Length of Day
9h 22m
Waxing Gibbous, 93% of the Moon is Illuminated
Nov 25
Waxing Gibbous
Nov 28
Full
Dec 6
Last Quarter
Dec 13
New
Dec 19
First Quarter

Hourly Weather History & Observations

Time (CST) Temp. Windchill Dew Point Humidity Pressure Visibility Wind Dir Wind Speed Gust Speed Precip Events Conditions
12:15 AM 30.2 °F 20.8 °F 21.2 °F 69% 29.93 in 10.0 mi SSW 11.5 mph 17.3 mph N/A   Overcast
12:35 AM 30.2 °F 21.9 °F 21.2 °F 69% 29.90 in 10.0 mi SSW 9.2 mph - N/A   Overcast
12:55 AM 30.2 °F 23.4 °F 21.2 °F 69% 29.88 in 10.0 mi SSW 6.9 mph - N/A   Overcast
1:15 AM 30.2 °F 23.4 °F 21.2 °F 69% 29.88 in 10.0 mi SSW 6.9 mph - N/A   Overcast
1:35 AM 30.2 °F 22.6 °F 21.2 °F 69% 29.88 in 10.0 mi SW 8.1 mph - N/A   Overcast
1:55 AM 30.2 °F 24.3 °F 21.2 °F 69% 29.86 in 10.0 mi SSW 5.8 mph - N/A   Overcast
2:15 AM 30.2 °F 21.3 °F 21.2 °F 69% 29.86 in 10.0 mi SW 10.4 mph - N/A   Overcast
2:35 AM 30.2 °F 21.3 °F 21.2 °F 69% 29.85 in 10.0 mi SSW 10.4 mph - N/A   Overcast
2:55 AM 30.2 °F 22.6 °F 21.2 °F 69% 29.86 in 10.0 mi SW 8.1 mph - N/A   Overcast
3:15 AM 30.2 °F 23.4 °F 21.2 °F 69% 29.85 in 10.0 mi SSW 6.9 mph - N/A   Overcast
3:35 AM 30.2 °F 22.6 °F 21.2 °F 69% 29.84 in 10.0 mi SW 8.1 mph - N/A   Mostly Cloudy
3:55 AM 28.4 °F 22.2 °F 21.2 °F 74% 29.84 in 10.0 mi SW 5.8 mph - N/A   Scattered Clouds
4:15 AM 28.4 °F 23.3 °F 21.2 °F 74% 29.84 in 10.0 mi SW 4.6 mph - N/A   Clear
4:35 AM 28.4 °F 24.6 °F 21.2 °F 74% 29.84 in 10.0 mi SW 3.5 mph - N/A   Clear
4:55 AM 28.4 °F 24.6 °F 21.2 °F 74% 29.84 in 10.0 mi SW 3.5 mph - N/A   Scattered Clouds
5:15 AM 28.4 °F 24.6 °F 21.2 °F 74% 29.83 in 10.0 mi SSW 3.5 mph - N/A   Scattered Clouds
5:35 AM 28.4 °F 24.6 °F 21.2 °F 74% 29.83 in 10.0 mi SW 3.5 mph - N/A   Clear
5:55 AM 28.4 °F - 21.2 °F 74% 29.83 in 10.0 mi Calm Calm - N/A   Clear
6:45 AM 24.8 °F 19.1 °F 19.4 °F 80% 29.83 in 10.0 mi SW 4.6 mph - N/A   Clear
7:45 AM 26.6 °F 21.2 °F 19.4 °F 74% 29.84 in 10.0 mi WSW 4.6 mph - N/A   Clear
8:50 AM 30.2 °F 22.6 °F 21.2 °F 69% 29.86 in 10.0 mi West 8.1 mph - N/A   Clear
9:45 AM 33.8 °F 25.8 °F 21.2 °F 60% 29.86 in 10.0 mi WNW 10.4 mph - N/A   Clear
10:45 AM 35.6 °F 29.9 °F 21.2 °F 56% 29.86 in 10.0 mi WNW 6.9 mph - N/A   Clear
11:45 AM 37.4 °F 30.3 °F 21.2 °F 52% 29.86 in 10.0 mi West 10.4 mph 17.3 mph N/A   Clear
12:45 PM 39.2 °F 32.0 °F 21.2 °F 49% 29.86 in 10.0 mi NW 11.5 mph - N/A   Clear
1:45 PM 39.2 °F 31.2 °F 21.2 °F 49% 29.86 in 10.0 mi WNW 13.8 mph - N/A   Clear
2:45 PM 37.4 °F 30.8 °F 21.2 °F 52% 29.88 in 10.0 mi WNW 9.2 mph - N/A   Clear
3:45 PM 35.6 °F 29.2 °F 21.2 °F 56% 29.91 in 10.0 mi WNW 8.1 mph - N/A   Clear
4:45 PM 33.8 °F 27.7 °F 21.2 °F 60% 29.92 in 10.0 mi West 6.9 mph - N/A   Clear
5:45 PM 32.0 °F - 19.4 °F 60% 29.95 in 10.0 mi Calm Calm - N/A   Clear
6:45 PM 28.4 °F - 19.4 °F 69% 29.97 in 10.0 mi Calm Calm - N/A   Clear
7:45 PM 28.4 °F - 19.4 °F 69% 29.99 in 10.0 mi Calm Calm - N/A   Clear
8:15 PM 28.4 °F - 21.2 °F 74% 30.00 in 10.0 mi Calm Calm - N/A   Clear
8:35 PM 30.2 °F 23.4 °F 21.2 °F 69% 30.01 in 10.0 mi NNW 6.9 mph - N/A   Clear
8:45 PM 28.4 °F 22.2 °F 21.2 °F 74% 30.01 in 10.0 mi North 5.8 mph - N/A   Clear
8:55 PM 30.2 °F 25.4 °F 21.2 °F 69% 30.01 in 10.0 mi North 4.6 mph - N/A   Clear
9:15 PM 30.2 °F 26.7 °F 21.2 °F 69% 30.02 in 10.0 mi North 3.5 mph - N/A   Clear
9:35 PM 28.4 °F - 21.2 °F 74% 30.03 in 10.0 mi Calm Calm - N/A   Clear
9:55 PM 28.4 °F - 21.2 °F 74% 30.03 in 10.0 mi Calm Calm - N/A   Clear
10:15 PM 28.4 °F - 21.2 °F 74% 30.04 in 10.0 mi Calm Calm - N/A   Clear
10:35 PM 28.4 °F - 21.2 °F 74% 30.05 in 10.0 mi Calm Calm - N/A   Clear
10:55 PM 26.6 °F 22.6 °F 21.2 °F 80% 30.06 in 10.0 mi SW 3.5 mph - N/A   Clear
11:15 PM 26.6 °F 22.6 °F 21.2 °F 80% 30.07 in 10.0 mi WSW 3.5 mph - N/A   Mostly Cloudy
11:35 PM 28.4 °F 21.2 °F 21.2 °F 74% 30.07 in 10.0 mi WNW 6.9 mph - N/A   Scattered Clouds
11:55 PM 28.4 °F 20.4 °F 21.2 °F 74% 30.08 in 10.0 mi WNW 8.1 mph - N/A   Clear